AUA399Y LOWW-LOWI

Flight info

Callsign AUA399Y
Flight time 0h 43m
Altitude 30000
Route SOVIL2B/16 SOVIL DCT SITNI DCT BAGSI DCT NANIT NANIT2A
Aircraft A320/M-SDE3FGHIRWY/LB1

Departure

Time 2026-05-04 17:55
Airport Vienna International Airport (LOWW)

Arrival

Time 2026-05-04 18:39
Airport Innsbruck Airport (LOWI)
Time Latitude Longitude Altitude Speed Heading
2026-05-04 17:25 48.11787 16.56604 609 ft 0 kts 25°
2026-05-04 17:43 48.11772 16.56593 625 ft 4 kts 31°
2026-05-04 17:43 48.11750 16.56569 616 ft 4 kts 44°
2026-05-04 17:44 48.11733 16.56539 625 ft 4 kts 59°
2026-05-04 17:44 48.11723 16.56503 623 ft 4 kts 85°
2026-05-04 17:44 48.11725 16.56470 625 ft 3 kts 115°
2026-05-04 17:44 48.11737 16.56434 618 ft 4 kts 115°
2026-05-04 17:45 48.11748 16.56398 625 ft 4 kts 116°
2026-05-04 17:45 48.11753 16.56383 622 ft 0 kts 116°
2026-05-04 17:48 48.11744 16.56410 611 ft 11 kts 116°
2026-05-04 17:48 48.11681 16.56602 617 ft 25 kts 116°
2026-05-04 17:48 48.11607 16.56834 614 ft 25 kts 115°
2026-05-04 17:48 48.11530 16.57066 619 ft 25 kts 117°
2026-05-04 17:49 48.11451 16.57304 623 ft 26 kts 116°
2026-05-04 17:49 48.11481 16.57451 610 ft 17 kts 23°
2026-05-04 17:49 48.11594 16.57436 612 ft 16 kts 344°
2026-05-04 17:49 48.11715 16.57386 617 ft 18 kts 345°
2026-05-04 17:50 48.11833 16.57335 621 ft 17 kts 344°
2026-05-04 17:50 48.11942 16.57289 611 ft 16 kts 346°
2026-05-04 17:50 48.12003 16.57382 609 ft 15 kts 76°
2026-05-04 17:50 48.12000 16.57561 615 ft 15 kts 106°
2026-05-04 17:51 48.11995 16.57589 609 ft 0 kts 104°
2026-05-04 17:53 48.11992 16.57610 620 ft 8 kts 104°
2026-05-04 17:54 48.11968 16.57749 610 ft 17 kts 107°
2026-05-04 17:54 48.11922 16.57842 617 ft 17 kts 155°
2026-05-04 17:54 48.11908 16.57848 617 ft 0 kts 163°
2026-05-04 17:55 48.11873 16.57863 610 ft 30 kts 165°
2026-05-04 17:55 48.11416 16.58058 615 ft 103 kts 164°
2026-05-04 17:55 48.10535 16.58432 647 ft 154 kts 165°
2026-05-04 17:55 48.09512 16.58851 1370 ft 152 kts 165°
2026-05-04 17:56 48.08832 16.59134 1853 ft 154 kts 166°
2026-05-04 17:56 48.07716 16.59584 2244 ft 180 kts 167°
2026-05-04 17:56 48.06005 16.60148 3100 ft 195 kts 178°
2026-05-04 17:56 48.04591 16.60207 3681 ft 214 kts 178°
2026-05-04 17:57 48.03022 16.60438 4184 ft 239 kts 176°
2026-05-04 17:57 48.01902 16.60650 4653 ft 249 kts 176°
2026-05-04 17:57 48.00164 16.60995 5538 ft 256 kts 175°
2026-05-04 17:57 47.98367 16.61341 6395 ft 265 kts 175°
2026-05-04 17:58 47.96511 16.61679 7250 ft 271 kts 175°
2026-05-04 17:58 47.94626 16.61663 8137 ft 274 kts 193°
2026-05-04 17:58 47.92887 16.60533 9072 ft 275 kts 217°
2026-05-04 17:58 47.91347 16.57554 10267 ft 282 kts 248°
2026-05-04 17:59 47.91070 16.55620 10835 ft 287 kts 265°
2026-05-04 17:59 47.91248 16.52546 11262 ft 311 kts 276°
2026-05-04 17:59 47.92053 16.45974 12561 ft 331 kts 278°
2026-05-04 18:00 47.92499 16.42575 13365 ft 336 kts 278°
2026-05-04 18:00 47.92942 16.39137 14115 ft 340 kts 278°
2026-05-04 18:00 47.93379 16.35653 14836 ft 343 kts 278°
2026-05-04 18:00 47.93806 16.32136 15550 ft 346 kts 277°
2026-05-04 18:01 47.94228 16.28589 16268 ft 349 kts 277°
2026-05-04 18:01 47.94650 16.25001 17003 ft 352 kts 277°
2026-05-04 18:01 47.95067 16.21439 17711 ft 355 kts 277°
2026-05-04 18:02 47.95922 16.14119 18990 ft 361 kts 278°
2026-05-04 18:02 47.96357 16.10419 19587 ft 364 kts 278°
2026-05-04 18:02 47.96799 16.06679 20205 ft 367 kts 278°
2026-05-04 18:02 47.97240 16.02917 20824 ft 370 kts 278°
2026-05-04 18:03 47.97681 15.99114 21417 ft 373 kts 278°
2026-05-04 18:03 47.98124 15.95288 22025 ft 375 kts 278°
2026-05-04 18:03 47.98563 15.91480 22566 ft 379 kts 278°
2026-05-04 18:03 47.99009 15.87590 23130 ft 382 kts 279°
2026-05-04 18:04 47.99459 15.83656 23612 ft 386 kts 279°
2026-05-04 18:04 47.99913 15.79686 24079 ft 389 kts 279°
2026-05-04 18:04 48.00826 15.71689 25027 ft 392 kts 279°
2026-05-04 18:05 48.01284 15.67658 25474 ft 394 kts 279°
2026-05-04 18:05 48.01741 15.63602 25866 ft 398 kts 279°
2026-05-04 18:05 48.02198 15.59529 26310 ft 400 kts 279°
2026-05-04 18:05 48.02660 15.55405 26694 ft 404 kts 279°
2026-05-04 18:06 48.03584 15.47134 27574 ft 408 kts 279°
2026-05-04 18:06 48.04048 15.42941 27990 ft 411 kts 279°
2026-05-04 18:06 48.04510 15.38702 28385 ft 414 kts 277°
2026-05-04 18:07 48.04697 15.34410 28805 ft 416 kts 271°
2026-05-04 18:07 48.04759 15.30076 29227 ft 417 kts 271°
2026-05-04 18:07 48.04823 15.25739 29665 ft 419 kts 271°
2026-05-04 18:07 48.04892 15.21377 29905 ft 417 kts 271°
2026-05-04 18:08 48.04960 15.17134 29925 ft 400 kts 271°
2026-05-04 18:08 48.05025 15.13061 29912 ft 387 kts 271°
2026-05-04 18:08 48.05140 15.05108 29913 ft 382 kts 271°
2026-05-04 18:09 48.05351 14.89102 29907 ft 394 kts 271°
2026-05-04 18:10 48.05449 14.80884 29909 ft 397 kts 270°
2026-05-04 18:10 48.05523 14.72636 29898 ft 397 kts 270°
2026-05-04 18:11 48.05581 14.64415 29901 ft 405 kts 270°
2026-05-04 18:11 48.05610 14.60129 29901 ft 417 kts 270°
2026-05-04 18:11 48.05640 14.55752 29897 ft 428 kts 270°
2026-05-04 18:12 48.05695 14.46660 29895 ft 443 kts 270°
2026-05-04 18:12 48.05744 14.37440 29893 ft 444 kts 270°
2026-05-04 18:13 48.05244 14.28270 29893 ft 443 kts 254°
2026-05-04 18:14 48.01411 14.15782 29896 ft 444 kts 244°
2026-05-04 18:14 47.98686 14.07528 29914 ft 443 kts 243°
2026-05-04 18:15 47.93226 13.91102 29913 ft 441 kts 243°
2026-05-04 18:16 47.90503 13.82989 29913 ft 441 kts 243°
2026-05-04 18:16 47.87757 13.74834 29913 ft 440 kts 243°
2026-05-04 18:17 47.83639 13.62621 29909 ft 440 kts 243°
2026-05-04 18:18 47.79532 13.50489 29906 ft 440 kts 243°
2026-05-04 18:18 47.76769 13.42359 29907 ft 440 kts 243°
2026-05-04 18:19 47.72612 13.30183 29909 ft 440 kts 242°
2026-05-04 18:19 47.69845 13.22109 29911 ft 440 kts 242°
2026-05-04 18:20 47.68463 13.18089 29306 ft 435 kts 242°
2026-05-04 18:20 47.67108 13.14156 28553 ft 430 kts 242°
2026-05-04 18:20 47.65753 13.10230 27842 ft 426 kts 242°
2026-05-04 18:20 47.64407 13.06334 27118 ft 423 kts 242°
2026-05-04 18:21 47.63068 13.02457 26443 ft 420 kts 243°
2026-05-04 18:21 47.61739 12.98618 25786 ft 417 kts 243°
2026-05-04 18:21 47.60422 12.94822 25155 ft 413 kts 243°
2026-05-04 18:21 47.59113 12.91048 24517 ft 410 kts 243°
2026-05-04 18:22 47.57815 12.87313 23876 ft 407 kts 243°
2026-05-04 18:22 47.56525 12.83607 23229 ft 404 kts 243°
2026-05-04 18:22 47.55245 12.79931 22600 ft 400 kts 243°
2026-05-04 18:22 47.53994 12.76341 21815 ft 391 kts 243°
2026-05-04 18:23 47.52756 12.72799 20801 ft 385 kts 242°
2026-05-04 18:23 47.51534 12.69319 19803 ft 379 kts 242°
2026-05-04 18:23 47.50329 12.65890 18984 ft 370 kts 242°
2026-05-04 18:23 47.49240 12.62788 18870 ft 344 kts 242°
2026-05-04 18:24 47.48181 12.59772 18750 ft 320 kts 242°
2026-05-04 18:24 47.47190 12.56947 18627 ft 299 kts 241°
2026-05-04 18:24 47.46260 12.54309 18442 ft 283 kts 241°
2026-05-04 18:24 47.45357 12.51757 18027 ft 277 kts 240°
2026-05-04 18:25 47.44470 12.49258 17505 ft 274 kts 241°
2026-05-04 18:25 47.43606 12.46813 17003 ft 270 kts 241°
2026-05-04 18:25 47.42739 12.44363 16499 ft 268 kts 241°
2026-05-04 18:25 47.41881 12.41936 16028 ft 266 kts 241°
2026-05-04 18:26 47.41032 12.39533 15528 ft 262 kts 241°
2026-05-04 18:26 47.40236 12.37120 15004 ft 261 kts 248°
2026-05-04 18:26 47.39749 12.34550 14541 ft 260 kts 258°
2026-05-04 18:26 47.39620 12.31892 14088 ft 260 kts 270°
2026-05-04 18:27 47.39822 12.29237 13669 ft 260 kts 275°
2026-05-04 18:27 47.40078 12.26591 13233 ft 260 kts 275°
2026-05-04 18:27 47.40327 12.23960 12915 ft 258 kts 275°
2026-05-04 18:27 47.40572 12.21346 12575 ft 256 kts 274°
2026-05-04 18:28 47.40810 12.18779 12198 ft 255 kts 274°
2026-05-04 18:28 47.41049 12.16170 11988 ft 254 kts 274°
2026-05-04 18:28 47.41285 12.13608 11925 ft 253 kts 274°
2026-05-04 18:28 47.41524 12.11047 11549 ft 252 kts 274°
2026-05-04 18:29 47.41761 12.08487 11194 ft 250 kts 274°
2026-05-04 18:29 47.41996 12.05954 10817 ft 250 kts 274°
2026-05-04 18:29 47.42228 12.03419 10467 ft 248 kts 274°
2026-05-04 18:29 47.42457 12.00904 10086 ft 247 kts 274°
2026-05-04 18:30 47.42343 11.96002 9500 ft 235 kts 249°
2026-05-04 18:30 47.41655 11.93831 9505 ft 235 kts 235°
2026-05-04 18:30 47.40615 11.92014 9505 ft 234 kts 221°
2026-05-04 18:31 47.39286 11.90635 9498 ft 235 kts 211°
2026-05-04 18:31 47.37894 11.89408 9496 ft 232 kts 210°
2026-05-04 18:31 47.36495 11.88182 9500 ft 234 kts 210°
2026-05-04 18:31 47.35111 11.86924 9514 ft 235 kts 215°
2026-05-04 18:32 47.33922 11.85270 9504 ft 237 kts 229°
2026-05-04 18:32 47.33056 11.83199 9503 ft 240 kts 243°
2026-05-04 18:32 47.32461 11.80882 9367 ft 242 kts 246°
2026-05-04 18:32 47.31967 11.78497 8992 ft 244 kts 253°
2026-05-04 18:33 47.31616 11.76073 8593 ft 241 kts 254°
2026-05-04 18:33 47.31305 11.73716 8191 ft 230 kts 255°
2026-05-04 18:33 47.31000 11.71441 7815 ft 216 kts 255°
2026-05-04 18:33 47.30718 11.69370 7495 ft 201 kts 255°
2026-05-04 18:34 47.30449 11.67395 7160 ft 194 kts 255°
2026-05-04 18:34 47.30192 11.65504 6869 ft 184 kts 254°
2026-05-04 18:34 47.29942 11.63681 6602 ft 180 kts 252°
2026-05-04 18:34 47.29695 11.61874 6291 ft 180 kts 253°
2026-05-04 18:35 47.29447 11.60064 5989 ft 179 kts 254°
2026-05-04 18:35 47.29201 11.58268 5694 ft 179 kts 254°
2026-05-04 18:35 47.28918 11.56488 5392 ft 178 kts 253°
2026-05-04 18:35 47.28584 11.54711 5116 ft 181 kts 251°
2026-05-04 18:36 47.28206 11.52936 4870 ft 184 kts 251°
2026-05-04 18:36 47.27794 11.51226 4508 ft 172 kts 253°
2026-05-04 18:36 47.27597 11.49550 4153 ft 163 kts 262°
2026-05-04 18:36 47.27473 11.47948 3932 ft 154 kts 260°
2026-05-04 18:37 47.27308 11.46415 3713 ft 150 kts 260°
2026-05-04 18:37 47.27144 11.44923 3471 ft 145 kts 260°
2026-05-04 18:37 47.26998 11.43457 3279 ft 144 kts 260°
2026-05-04 18:37 47.26835 11.41988 3021 ft 144 kts 263°
2026-05-04 18:38 47.26682 11.40539 2743 ft 144 kts 261°
2026-05-04 18:38 47.26525 11.39072 2470 ft 145 kts 258°
2026-05-04 18:38 47.26363 11.37592 2255 ft 147 kts 256°
2026-05-04 18:38 47.26205 11.36099 1981 ft 148 kts 257°
2026-05-04 18:39 47.26044 11.34687 1904 ft 120 kts 262°
2026-05-04 18:39 47.25969 11.33902 1901 ft 39 kts 261°
2026-05-04 18:39 47.25911 11.33682 1897 ft 13 kts 176°
2026-05-04 18:39 47.25855 11.33784 1896 ft 13 kts 124°
2026-05-04 18:40 47.25805 11.33891 1896 ft 13 kts 123°
2026-05-04 18:40 47.25772 11.34020 1904 ft 15 kts 98°
2026-05-04 18:40 47.25783 11.34179 1893 ft 17 kts 80°
2026-05-04 18:40 47.25803 11.34362 1904 ft 19 kts 82°
2026-05-04 18:41 47.25825 11.34562 1896 ft 21 kts 81°
2026-05-04 18:41 47.25849 11.34781 1904 ft 22 kts 81°
2026-05-04 18:41 47.25868 11.34973 1892 ft 15 kts 80°
2026-05-04 18:41 47.25871 11.35015 1900 ft 2 kts 100°
2026-05-04 18:42 47.25841 11.35046 1904 ft 0 kts 169°
2026-05-04 18:42 47.25823 11.35051 1900 ft 0 kts 171°